Tracking 25710 objects as of 5-Jul-2022
HD Live streaming from Space Station
objects crossing your sky now

SL-6 R/B(2)

Track SL-6 R/B(2) now!


NORAD ID: 8018
Int'l Code: 1975-063D
Perigee: 571.3 km
Apogee: 30,176.8 km
Inclination: 62.7 °
Period: 531.9 minutes
Semi major axis: 21745 km
RCS: 7.1776 m2 (large)
Launch date: July 8, 1975
Source: Commonwealth of Independent States (former USSR) (CIS)
Launch site: PLESETSK MISSILE AND SPACE COMPLEX (PKMTR)

Note: This is a ROCKET BODY
aabbcc
Your satellite tracking list
Your tracking list is empty




NASA's NSSDC Master Catalog

Two Line Element Set (TLE):
1 08018U 75063D   22185.30681795  .00000046  00000-0 -27558-3 0  9996
2 08018  62.7030 229.8074 6807406 298.6600  10.1922  2.70746369342548
Source of the keplerian elements: AFSPC